Regional Weather Roundup
Issued by NWS Midland/Odessa, TX

Skip options and go directly to product.
Home | Oldest Version | Previous Version | Current Version | All | Graphics & Text | Save Text | Print | Product List | Glossary On

Skip product version selection by date and time.   
259
ASUS44 KMAF 271510
RWRMAF
MIDLAND AREA WEATHER ROUNDUP
NATIONAL WEATHER SERVICE MIDLAND TX
1000 AM CDT FRI MAR 27 2015

...IN SOUTHWEST TEXAS AND SOUTHEAST NEW MEXICO...

CITY           SKY/WX    TMP DP  RH WIND       PRES   REMARKS
ALPINE         SUNNY     57  33  40 SW16      30.34S
ANDREWS        FAIR      62  27  26 SW14      30.21S
ARTESIA        SUNNY     52  30  43 CALM      30.23S
BIG SPRING     SUNNY     55  36  48 S7        30.24S
CARLSBAD       SUNNY     51  34  52 CALM      30.21R
DRYDEN           N/A     59  38  45 SW10      30.22S
FORT STOCKTON  SUNNY     58  33  39 SW15      30.24R
GUAD PASS      SUNNY     50  29  44 W20       30.31R
HOBBS          SUNNY     55  28  35 S9        30.22R
MARFA          SUNNY     48  36  61 S3G21     30.34R
MIDLAND AIRPK  SUNNY     61  31  32 S8        30.22S
MIDLAND INTL   SUNNY     58  35  42 SW10      30.22R
ODESSA         SUNNY     58  35  42 SW9       30.23R
PECOS          SUNNY     50  38  62 S5        30.23S
PRESIDIO       FAIR      56  37  48 E8        30.29R
SEMINOLE       SUNNY     59  29  32 SW10      30.21S
SNYDER         SUNNY     55  30  38 W8        30.23R
WINK           SUNNY     53  36  52 SE3       30.21S
$$
...OTHER STATIONS IN TEXAS...

CITY           SKY/WX    TMP DP  RH WIND       PRES   REMARKS
ABILENE        SUNNY     56  32  40 NW13      30.22R
AMARILLO       SUNNY     53  28  38 E9        30.22R
AUSTIN         MOSUNNY   60  41  49 SW3       30.19S
BROWNSVILLE    MOSUNNY   63  51  65 NW7       30.25R
CORPUS CHRISTI MOSUNNY   59  47  64 NW6       30.23R
DALLAS FTW     PTSUNNY   59  37  44 N10       30.15R
DEL RIO        SUNNY     58  44  60 CALM      30.23S
EL PASO        MOSUNNY   53  30  41 S6        30.28R
HOUSTON INT    SUNNY     59  39  47 W5        30.18F
LUBBOCK        MOSUNNY   55  28  35 W9        30.21R
SAN ANGELO     SUNNY     56  34  43 W6        30.23R
SAN ANTONIO    SUNNY     62  34  35 W7        30.22R
WACO           SUNNY     57  40  52 SW7       30.17S
WICHITA FALLS  NOT AVBL
$$
...OTHER LOCATIONS IN NEW MEXICO...

CITY           SKY/WX    TMP DP  RH WIND       PRES   REMARKS
ALAMAGORDO     MOSUNNY   50  25  37 CALM      30.30R
ALBUQUERQUE    MOSUNNY   51  22  31 W3        30.32S
CANNON AFB     NOT AVBL
CLOVIS         SUNNY     52  27  37 N9        30.21R
HOLLOMAN AFB   MOSUNNY   52  24  33 CALM      30.29R
ROSWELL        MOSUNNY   48  29  47 CALM      30.23R
RUIDOSO        SUNNY     54  16  22 NW13G21   30.35R
SANTA FE       MOSUNNY   49  18  29 N9        30.32R
TRUTH OR CONSE SUNNY     55  22  27 NE3       30.30R
TUCUMCARI      SUNNY     51  23  33 NW6       30.21R
$$

USA.gov is the U.S. government's official web portal to all federal, state and local government web resources and services.